GFSNE_prec_precacc24_069.txt.gz
Total_Precipitation_Accumulation
0.24 0.28 0.28 0.25 0.18 0.13 0.10 0.07 0.05 0.03 0.01 0.00 0.00 0.00 0.00 0.00 0.00 0.00 0.00 0.00 0.00 0.00 0.00 0.00 0.00 0.00 0.00 0.01 0.01 0.01 0.01 0.01 0.01 0.02 0.02 0.02 0.02 0.03
0.24 0.26 0.20 0.14 0.11 0.09 0.08 0.06 0.05 0.03 0.01 0.00 0.00 0.00 0.00 0.00 0.00 0.00 0.00 0.00 0.00 0.00 0.00 0.00 0.00 0.00 0.00 0.00 0.01 0.01 0.01 0.01 0.01 0.02 0.03 0.04 0.06 0.07
0.31 0.23 0.16 0.12 0.07 0.04 0.02 0.01 0.01 0.00 0.01 0.00 0.00 0.00 0.00 0.00 0.00 0.00 0.00 0.00 0.00 0.00 0.00 0.00 0.00 0.00 0.00 0.00 0.00 0.00 0.01 0.01 0.01 0.02 0.02 0.03 0.05 0.07
0.32 0.19 0.11 0.07 0.05 0.03 0.02 0.03 0.02 0.01 0.01 0.00 0.00 0.00 0.00 0.00 0.00 0.00 0.00 0.00 0.00 0.00 0.00 0.00 0.00 0.00 0.00 0.00 0.00 0.00 0.00 0.00 0.01 0.02 0.02 0.03 0.04 0.05
0.18 0.10 0.06 0.05 0.04 0.03 0.03 0.03 0.01 0.00 0.00 0.00 0.00 0.00 0.00 0.00 0.00 0.00 0.00 0.00 0.00 0.00 0.00 0.00 0.00 0.00 0.00 0.00 0.00 0.00 0.01 0.01 0.01 0.02 0.03 0.04 0.04 0.03
0.05 0.04 0.04 0.04 0.03 0.03 0.02 0.02 0.01 0.01 0.01 0.01 0.01 0.00 0.00 0.00 0.00 0.00 0.00 0.00 0.01 0.01 0.01 0.00 0.00 0.00 0.00 0.00 0.00 0.01 0.01 0.02 0.03 0.03 0.04 0.04 0.05 0.06
0.04 0.03 0.02 0.05 0.04 0.02 0.01 0.01 0.01 0.02 0.02 0.01 0.00 0.00 0.00 0.00 0.00 0.01 0.01 0.00 0.00 0.00 0.00 0.00 0.01 0.00 0.01 0.01 0.02 0.02 0.02 0.02 0.03 0.04 0.06 0.07 0.07 0.07
0.03 0.01 0.03 0.04 0.02 0.02 0.01 0.01 0.01 0.01 0.01 0.01 0.01 0.01 0.00 0.00 0.01 0.02 0.02 0.02 0.02 0.00 0.01 0.01 0.01 0.00 0.00 0.01 0.01 0.01 0.02 0.02 0.03 0.04 0.06 0.07 0.08 0.09
0.02 0.02 0.02 0.03 0.04 0.00 0.01 0.00 0.00 0.00 0.00 0.00 0.00 0.00 0.01 0.01 0.03 0.03 0.04 0.04 0.02 0.01 0.02 0.02 0.01 0.01 0.01 0.01 0.01 0.00 0.00 0.00 0.01 0.02 0.03 0.04 0.02 0.01
0.02 0.02 0.02 0.01 0.01 0.00 0.00 0.00 0.00 0.00 0.00 0.00 0.00 0.00 0.01 0.01 0.02 0.04 0.04 0.03 0.02 0.01 0.01 0.03 0.01 0.01 0.01 0.01 0.01 0.02 0.04 0.06 0.06 0.06 0.07 0.07 0.04 0.01
0.03 0.03 0.01 0.00 0.01 0.01 0.00 0.00 0.00 0.00 0.00 0.00 0.02 0.02 0.02 0.01 0.01 0.03 0.02 0.04 0.03 0.00 0.01 0.02 0.01 0.01 0.00 0.00 0.00 0.01 0.02 0.04 0.05 0.05 0.03 0.03 0.03 0.01
0.04 0.03 0.01 0.00 0.00 0.00 0.00 0.00 0.01 0.00 0.01 0.02 0.02 0.02 0.01 0.01 0.01 0.01 0.01 0.06 0.06 0.04 0.00 0.02 0.01 0.02 0.06 0.01 0.01 0.02 0.04 0.03 0.03 0.02 0.01 0.01 0.01 0.01
0.01 0.00 0.00 0.00 0.00 0.00 0.00 0.01 0.02 0.01 0.03 0.04 0.04 0.05 0.05 0.06 0.05 0.05 0.06 0.12 0.20 0.16 0.05 0.13 0.13 0.11 0.15 0.09 0.03 0.02 0.05 0.07 0.07 0.03 0.02 0.02 0.03 0.04
0.01 0.00 0.01 0.00 0.00 0.00 0.01 0.01 0.02 0.03 0.08 0.08 0.07 0.06 0.06 0.09 0.09 0.07 0.05 0.04 0.06 0.07 0.04 0.14 0.21 0.11 0.14 0.13 0.06 0.01 0.03 0.02 0.02 0.03 0.04 0.03 0.02 0.01
0.00 0.00 0.00 0.00 0.01 0.02 0.01 0.00 0.02 0.08 0.12 0.14 0.10 0.05 0.02 0.02 0.03 0.04 0.04 0.02 0.01 0.01 0.02 0.06 0.09 0.09 0.12 0.11 0.07 0.03 0.02 0.00 0.01 0.05 0.04 0.02 0.02 0.11
0.00 0.01 0.01 0.01 0.01 0.01 0.01 0.02 0.03 0.05 0.07 0.08 0.07 0.06 0.06 0.08 0.07 0.05 0.06 0.06 0.09 0.03 0.02 0.05 0.08 0.15 0.14 0.07 0.09 0.07 0.03 0.02 0.03 0.04 0.02 0.01 0.07 0.31
0.02 0.02 0.02 0.03 0.03 0.03 0.03 0.03 0.05 0.07 0.09 0.09 0.10 0.11 0.13 0.13 0.11 0.09 0.12 0.12 0.14 0.04 0.02 0.04 0.07 0.11 0.08 0.06 0.07 0.02 0.02 0.03 0.04 0.03 0.03 0.05 0.13 0.26
0.02 0.02 0.03 0.05 0.05 0.04 0.06 0.06 0.06 0.06 0.06 0.08 0.11 0.11 0.14 0.16 0.17 0.18 0.23 0.23 0.20 0.13 0.10 0.09 0.12 0.12 0.08 0.05 0.03 0.02 0.03 0.02 0.01 0.01 0.03 0.07 0.08 0.16
0.01 0.03 0.04 0.05 0.05 0.05 0.07 0.08 0.09 0.07 0.06 0.08 0.10 0.10 0.09 0.10 0.11 0.12 0.10 0.08 0.07 0.05 0.04 0.05 0.09 0.11 0.10 0.05 0.04 0.02 0.04 0.01 0.01 0.01 0.01 0.03 0.07 0.13
0.01 0.02 0.03 0.04 0.05 0.05 0.06 0.06 0.06 0.06 0.07 0.07 0.07 0.08 0.11 0.13 0.15 0.12 0.11 0.12 0.11 0.10 0.08 0.05 0.06 0.08 0.11 0.08 0.10 0.03 0.01 0.02 0.02 0.01 0.01 0.00 0.02 0.10
0.03 0.03 0.03 0.04 0.08 0.13 0.14 0.16 0.19 0.21 0.23 0.25 0.24 0.25 0.26 0.29 0.28 0.26 0.25 0.20 0.20 0.18 0.11 0.06 0.06 0.09 0.09 0.08 0.08 0.04 0.06 0.02 0.01 0.01 0.01 0.01 0.01 0.03
0.04 0.05 0.05 0.07 0.12 0.16 0.16 0.17 0.17 0.18 0.19 0.20 0.18 0.16 0.14 0.15 0.15 0.14 0.16 0.17 0.13 0.13 0.09 0.05 0.06 0.10 0.08 0.05 0.02 0.03 0.04 0.05 0.01 0.00 0.00 0.01 0.01 0.02
0.04 0.05 0.04 0.04 0.06 0.08 0.10 0.10 0.11 0.12 0.15 0.18 0.18 0.19 0.21 0.19 0.16 0.16 0.14 0.12 0.12 0.10 0.10 0.11 0.12 0.13 0.07 0.05 0.03 0.03 0.02 0.01 0.01 0.02 0.03 0.00 0.00 0.00

GFSNE_prec_precacc24_072.txt.gz
Total_Precipitation_Accumulation
0.24 0.28 0.29 0.27 0.21 0.15 0.12 0.09 0.09 0.06 0.02 0.01 0.00 0.00 0.00 0.00 0.00 0.00 0.00 0.00 0.00 0.00 0.00 0.00 0.00 0.00 0.00 0.01 0.01 0.01 0.01 0.01 0.01 0.01 0.01 0.02 0.03 0.04
0.23 0.26 0.21 0.15 0.11 0.09 0.08 0.06 0.06 0.04 0.02 0.00 0.00 0.00 0.00 0.00 0.00 0.00 0.00 0.00 0.00 0.00 0.00 0.00 0.00 0.00 0.00 0.00 0.01 0.01 0.01 0.01 0.01 0.02 0.03 0.04 0.06 0.09
0.31 0.25 0.18 0.16 0.12 0.09 0.06 0.05 0.04 0.03 0.02 0.00 0.00 0.00 0.00 0.00 0.00 0.00 0.00 0.00 0.00 0.00 0.00 0.00 0.00 0.00 0.00 0.00 0.00 0.00 0.01 0.01 0.01 0.02 0.02 0.03 0.05 0.08
0.41 0.33 0.27 0.25 0.26 0.26 0.19 0.09 0.06 0.04 0.02 0.01 0.01 0.00 0.00 0.00 0.00 0.00 0.00 0.00 0.00 0.00 0.00 0.00 0.00 0.00 0.00 0.00 0.00 0.00 0.00 0.00 0.01 0.01 0.02 0.03 0.04 0.05
0.43 0.41 0.33 0.25 0.18 0.14 0.12 0.10 0.07 0.04 0.01 0.01 0.00 0.00 0.00 0.00 0.00 0.00 0.00 0.00 0.00 0.00 0.00 0.00 0.00 0.00 0.00 0.00 0.00 0.00 0.01 0.01 0.01 0.02 0.03 0.04 0.04 0.04
0.22 0.26 0.34 0.36 0.29 0.16 0.07 0.04 0.03 0.02 0.01 0.02 0.01 0.00 0.00 0.00 0.00 0.00 0.00 0.00 0.01 0.01 0.01 0.00 0.00 0.00 0.00 0.00 0.00 0.01 0.01 0.02 0.03 0.03 0.04 0.04 0.05 0.06
0.16 0.16 0.12 0.10 0.08 0.04 0.02 0.01 0.01 0.03 0.02 0.01 0.00 0.00 0.00 0.00 0.00 0.01 0.01 0.00 0.00 0.00 0.00 0.00 0.01 0.00 0.01 0.01 0.02 0.02 0.02 0.02 0.03 0.04 0.06 0.07 0.06 0.07
0.05 0.03 0.04 0.08 0.04 0.05 0.04 0.03 0.02 0.01 0.01 0.01 0.01 0.01 0.00 0.00 0.01 0.02 0.02 0.02 0.02 0.00 0.01 0.01 0.01 0.00 0.00 0.01 0.01 0.01 0.02 0.02 0.03 0.04 0.06 0.07 0.08 0.10
0.03 0.03 0.03 0.06 0.07 0.01 0.03 0.03 0.01 0.01 0.00 0.00 0.00 0.00 0.01 0.01 0.03 0.03 0.04 0.04 0.02 0.01 0.02 0.02 0.01 0.01 0.01 0.01 0.01 0.00 0.00 0.00 0.01 0.02 0.03 0.04 0.05 0.04
0.06 0.04 0.04 0.04 0.06 0.04 0.01 0.01 0.01 0.01 0.01 0.00 0.00 0.00 0.01 0.01 0.02 0.04 0.04 0.03 0.02 0.01 0.01 0.03 0.01 0.01 0.01 0.01 0.01 0.02 0.04 0.06 0.06 0.06 0.07 0.07 0.06 0.05
0.07 0.07 0.09 0.08 0.16 0.12 0.07 0.06 0.02 0.00 0.00 0.00 0.02 0.02 0.02 0.01 0.01 0.03 0.02 0.04 0.03 0.00 0.01 0.02 0.01 0.01 0.00 0.00 0.00 0.01 0.02 0.04 0.05 0.05 0.03 0.04 0.06 0.05
0.08 0.10 0.14 0.07 0.09 0.04 0.02 0.01 0.00 0.00 0.01 0.02 0.02 0.02 0.01 0.01 0.01 0.01 0.01 0.06 0.06 0.04 0.00 0.02 0.01 0.02 0.06 0.01 0.01 0.02 0.04 0.03 0.03 0.02 0.01 0.01 0.03 0.04
0.08 0.08 0.09 0.09 0.07 0.04 0.01 0.01 0.01 0.01 0.02 0.03 0.04 0.05 0.05 0.06 0.05 0.05 0.06 0.12 0.19 0.16 0.05 0.13 0.13 0.11 0.15 0.09 0.03 0.02 0.05 0.07 0.08 0.05 0.02 0.02 0.03 0.04
0.10 0.09 0.10 0.09 0.05 0.02 0.01 0.01 0.02 0.02 0.04 0.06 0.06 0.06 0.06 0.09 0.09 0.07 0.05 0.04 0.06 0.07 0.04 0.14 0.21 0.11 0.13 0.13 0.06 0.01 0.03 0.02 0.03 0.04 0.06 0.04 0.01 0.01
0.12 0.11 0.08 0.04 0.01 0.00 0.01 0.00 0.01 0.05 0.08 0.10 0.08 0.04 0.02 0.02 0.03 0.04 0.04 0.02 0.01 0.01 0.02 0.06 0.08 0.09 0.13 0.11 0.07 0.03 0.02 0.01 0.02 0.04 0.04 0.01 0.01 0.08
0.08 0.04 0.01 0.00 0.00 0.01 0.01 0.01 0.02 0.02 0.04 0.05 0.05 0.05 0.05 0.07 0.07 0.05 0.06 0.05 0.09 0.03 0.02 0.05 0.08 0.15 0.14 0.07 0.10 0.07 0.03 0.02 0.04 0.04 0.02 0.01 0.04 0.24
0.02 0.01 0.01 0.01 0.01 0.01 0.01 0.02 0.03 0.05 0.06 0.06 0.07 0.09 0.11 0.13 0.11 0.09 0.12 0.12 0.13 0.04 0.02 0.04 0.07 0.11 0.08 0.07 0.07 0.03 0.02 0.03 0.05 0.04 0.03 0.03 0.06 0.13
0.02 0.02 0.03 0.03 0.03 0.02 0.02 0.03 0.04 0.05 0.05 0.06 0.07 0.08 0.11 0.16 0.17 0.18 0.22 0.23 0.19 0.13 0.10 0.09 0.12 0.12 0.08 0.05 0.03 0.03 0.04 0.04 0.02 0.02 0.02 0.03 0.03 0.06
0.03 0.03 0.04 0.04 0.03 0.02 0.03 0.04 0.05 0.06 0.06 0.07 0.08 0.07 0.08 0.09 0.10 0.12 0.09 0.07 0.06 0.05 0.04 0.05 0.09 0.11 0.11 0.05 0.03 0.03 0.09 0.06 0.04 0.04 0.02 0.02 0.02 0.08
0.02 0.02 0.01 0.02 0.01 0.01 0.02 0.03 0.04 0.05 0.07 0.06 0.06 0.06 0.09 0.11 0.14 0.12 0.11 0.11 0.10 0.10 0.08 0.05 0.06 0.08 0.12 0.08 0.11 0.05 0.05 0.10 0.09 0.04 0.02 0.01 0.02 0.10
0.03 0.03 0.02 0.03 0.03 0.03 0.05 0.11 0.17 0.20 0.22 0.23 0.22 0.23 0.23 0.27 0.27 0.26 0.25 0.20 0.20 0.17 0.11 0.06 0.06 0.10 0.09 0.09 0.09 0.03 0.04 0.03 0.06 0.05 0.03 0.03 0.02 0.03
0.04 0.05 0.05 0.04 0.04 0.04 0.05 0.09 0.13 0.17 0.18 0.18 0.17 0.14 0.12 0.14 0.15 0.14 0.15 0.16 0.13 0.13 0.10 0.05 0.06 0.10 0.08 0.07 0.03 0.04 0.08 0.09 0.02 0.02 0.01 0.02 0.02 0.02
0.04 0.04 0.03 0.03 0.02 0.02 0.02 0.04 0.05 0.09 0.13 0.16 0.16 0.16 0.17 0.18 0.16 0.16 0.14 0.12 0.12 0.10 0.11 0.11 0.12 0.13 0.07 0.06 0.05 0.06 0.10 0.10 0.03 0.01 0.02 0.00 0.00 0.00

GFSNE_prec_precacc24_075.txt.gz
Total_Precipitation_Accumulation
0.23 0.29 0.31 0.28 0.24 0.16 0.13 0.10 0.10 0.06 0.03 0.01 0.00 0.00 0.00 0.00 0.00 0.00 0.00 0.00 0.00 0.00 0.00 0.00 0.00 0.00 0.00 0.01 0.01 0.01 0.01 0.01 0.01 0.01 0.01 0.02 0.03 0.03
0.23 0.24 0.23 0.17 0.15 0.12 0.10 0.07 0.06 0.04 0.03 0.01 0.01 0.00 0.00 0.00 0.00 0.00 0.00 0.00 0.00 0.00 0.00 0.00 0.00 0.00 0.00 0.00 0.01 0.01 0.01 0.01 0.01 0.01 0.02 0.04 0.06 0.09
0.25 0.23 0.20 0.17 0.15 0.12 0.09 0.07 0.06 0.06 0.09 0.06 0.04 0.03 0.00 0.00 0.00 0.00 0.00 0.00 0.00 0.00 0.00 0.00 0.00 0.00 0.00 0.00 0.00 0.00 0.01 0.01 0.01 0.02 0.02 0.03 0.05 0.08
0.39 0.34 0.28 0.27 0.30 0.30 0.31 0.29 0.26 0.22 0.25 0.20 0.12 0.08 0.01 0.00 0.00 0.00 0.00 0.00 0.00 0.00 0.00 0.00 0.00 0.00 0.00 0.00 0.00 0.00 0.00 0.00 0.01 0.01 0.02 0.02 0.03 0.05
0.42 0.41 0.34 0.27 0.22 0.20 0.21 0.22 0.19 0.20 0.19 0.16 0.09 0.06 0.03 0.00 0.00 0.00 0.00 0.00 0.00 0.00 0.00 0.00 0.00 0.00 0.00 0.00 0.00 0.00 0.01 0.01 0.01 0.02 0.03 0.03 0.04 0.03
0.22 0.26 0.35 0.42 0.40 0.34 0.26 0.19 0.14 0.11 0.10 0.11 0.09 0.03 0.01 0.00 0.00 0.00 0.00 0.00 0.01 0.01 0.01 0.00 0.00 0.00 0.00 0.00 0.00 0.01 0.01 0.02 0.03 0.03 0.04 0.04 0.05 0.06
0.17 0.19 0.20 0.23 0.21 0.19 0.17 0.12 0.07 0.06 0.07 0.07 0.07 0.02 0.02 0.00 0.00 0.01 0.01 0.00 0.00 0.00 0.00 0.00 0.01 0.00 0.01 0.01 0.02 0.02 0.02 0.02 0.03 0.04 0.06 0.06 0.06 0.06
0.05 0.05 0.08 0.12 0.09 0.12 0.12 0.12 0.09 0.09 0.08 0.04 0.03 0.03 0.02 0.00 0.01 0.01 0.02 0.02 0.02 0.00 0.01 0.01 0.01 0.00 0.00 0.01 0.01 0.01 0.02 0.02 0.03 0.04 0.06 0.07 0.08 0.10
0.03 0.04 0.06 0.10 0.14 0.05 0.10 0.08 0.08 0.09 0.07 0.04 0.04 0.04 0.03 0.01 0.02 0.03 0.04 0.04 0.02 0.01 0.02 0.02 0.01 0.01 0.01 0.01 0.01 0.00 0.00 0.00 0.01 0.02 0.03 0.04 0.05 0.04
0.07 0.06 0.08 0.10 0.16 0.14 0.08 0.08 0.09 0.13 0.13 0.07 0.08 0.10 0.08 0.03 0.02 0.04 0.04 0.03 0.02 0.01 0.01 0.03 0.01 0.01 0.01 0.01 0.01 0.02 0.04 0.06 0.06 0.06 0.07 0.07 0.06 0.05
0.09 0.11 0.15 0.14 0.32 0.26 0.16 0.19 0.20 0.20 0.20 0.16 0.12 0.07 0.04 0.02 0.01 0.03 0.02 0.04 0.03 0.00 0.01 0.02 0.01 0.01 0.00 0.00 0.00 0.01 0.02 0.04 0.05 0.05 0.03 0.04 0.06 0.05
0.12 0.16 0.25 0.15 0.23 0.13 0.07 0.06 0.08 0.10 0.11 0.12 0.10 0.05 0.02 0.01 0.01 0.01 0.01 0.06 0.06 0.04 0.00 0.02 0.01 0.02 0.06 0.01 0.01 0.02 0.04 0.03 0.03 0.02 0.01 0.01 0.03 0.05
0.10 0.11 0.15 0.18 0.13 0.12 0.10 0.10 0.13 0.12 0.11 0.08 0.06 0.04 0.04 0.05 0.05 0.05 0.06 0.12 0.19 0.16 0.05 0.13 0.13 0.11 0.15 0.09 0.03 0.02 0.04 0.07 0.07 0.05 0.02 0.01 0.02 0.04
0.13 0.14 0.21 0.24 0.17 0.15 0.13 0.12 0.11 0.09 0.08 0.07 0.05 0.04 0.05 0.08 0.09 0.07 0.05 0.04 0.06 0.07 0.04 0.14 0.21 0.11 0.13 0.12 0.06 0.01 0.03 0.02 0.02 0.03 0.05 0.04 0.00 0.00
0.16 0.21 0.24 0.22 0.17 0.15 0.13 0.10 0.06 0.03 0.03 0.03 0.03 0.03 0.01 0.01 0.03 0.04 0.04 0.02 0.01 0.01 0.02 0.06 0.08 0.09 0.13 0.11 0.07 0.03 0.02 0.01 0.01 0.02 0.04 0.04 0.01 0.05
0.18 0.17 0.14 0.12 0.09 0.08 0.06 0.03 0.01 0.01 0.02 0.03 0.03 0.03 0.02 0.03 0.05 0.05 0.06 0.05 0.09 0.03 0.02 0.05 0.08 0.15 0.14 0.07 0.10 0.07 0.02 0.01 0.02 0.03 0.04 0.04 0.03 0.19
0.10 0.09 0.08 0.07 0.04 0.02 0.01 0.01 0.01 0.01 0.01 0.02 0.03 0.05 0.07 0.09 0.08 0.08 0.11 0.11 0.13 0.03 0.02 0.03 0.07 0.11 0.08 0.07 0.07 0.02 0.01 0.02 0.03 0.04 0.04 0.06 0.04 0.10
0.07 0.06 0.05 0.04 0.03 0.02 0.02 0.01 0.00 0.01 0.02 0.03 0.04 0.05 0.07 0.11 0.14 0.16 0.22 0.22 0.19 0.13 0.10 0.09 0.12 0.11 0.08 0.05 0.03 0.03 0.04 0.04 0.04 0.04 0.05 0.06 0.04 0.06
0.05 0.05 0.05 0.05 0.03 0.02 0.01 0.01 0.01 0.01 0.02 0.04 0.04 0.05 0.05 0.05 0.07 0.09 0.07 0.06 0.06 0.05 0.04 0.04 0.09 0.11 0.10 0.04 0.03 0.03 0.11 0.09 0.10 0.11 0.09 0.06 0.03 0.06
0.03 0.03 0.03 0.02 0.01 0.01 0.01 0.01 0.01 0.01 0.02 0.04 0.04 0.05 0.07 0.08 0.09 0.09 0.09 0.10 0.10 0.10 0.08 0.05 0.06 0.08 0.12 0.08 0.11 0.04 0.05 0.10 0.12 0.13 0.12 0.09 0.03 0.07
0.03 0.03 0.03 0.03 0.03 0.02 0.02 0.02 0.02 0.04 0.12 0.20 0.21 0.22 0.22 0.25 0.23 0.23 0.23 0.19 0.20 0.17 0.11 0.05 0.06 0.10 0.09 0.09 0.09 0.02 0.01 0.03 0.09 0.17 0.16 0.16 0.07 0.03
0.05 0.05 0.05 0.04 0.03 0.03 0.03 0.02 0.01 0.03 0.07 0.14 0.15 0.13 0.10 0.11 0.11 0.11 0.13 0.16 0.13 0.13 0.10 0.05 0.06 0.10 0.08 0.07 0.03 0.04 0.08 0.06 0.05 0.06 0.13 0.19 0.08 0.06
0.04 0.04 0.03 0.02 0.02 0.01 0.01 0.01 0.01 0.01 0.04 0.07 0.11 0.13 0.14 0.14 0.12 0.13 0.13 0.11 0.11 0.10 0.11 0.11 0.12 0.13 0.08 0.06 0.06 0.07 0.10 0.11 0.09 0.09 0.08 0.07 0.01 0.00

GFSNE_prec_precacc24_078.txt.gz
Total_Precipitation_Accumulation
0.23 0.29 0.30 0.26 0.23 0.18 0.16 0.13 0.13 0.07 0.03 0.01 0.00 0.00 0.00 0.00 0.00 0.00 0.00 0.00 0.00 0.00 0.00 0.00 0.00 0.00 0.00 0.01 0.01 0.01 0.01 0.01 0.01 0.01 0.01 0.02 0.03 0.03
0.19 0.21 0.17 0.14 0.16 0.16 0.14 0.11 0.11 0.06 0.03 0.01 0.01 0.00 0.00 0.01 0.00 0.00 0.00 0.00 0.00 0.00 0.00 0.00 0.00 0.00 0.00 0.00 0.01 0.01 0.01 0.01 0.01 0.01 0.02 0.04 0.06 0.08
0.19 0.19 0.17 0.16 0.18 0.16 0.15 0.15 0.11 0.09 0.10 0.07 0.04 0.04 0.03 0.03 0.01 0.00 0.00 0.00 0.00 0.00 0.00 0.00 0.00 0.00 0.00 0.00 0.00 0.00 0.01 0.01 0.01 0.01 0.02 0.03 0.05 0.07
0.33 0.30 0.26 0.27 0.32 0.34 0.35 0.32 0.28 0.23 0.26 0.22 0.14 0.10 0.07 0.04 0.02 0.01 0.01 0.00 0.00 0.00 0.00 0.00 0.00 0.00 0.00 0.00 0.00 0.00 0.00 0.00 0.01 0.01 0.02 0.02 0.03 0.05
0.38 0.40 0.34 0.28 0.24 0.21 0.22 0.24 0.21 0.22 0.23 0.22 0.15 0.08 0.06 0.05 0.05 0.04 0.02 0.02 0.00 0.00 0.00 0.00 0.00 0.00 0.00 0.00 0.00 0.00 0.01 0.01 0.01 0.02 0.03 0.03 0.03 0.03
0.22 0.26 0.36 0.43 0.42 0.37 0.31 0.24 0.19 0.18 0.17 0.17 0.14 0.09 0.08 0.06 0.05 0.03 0.02 0.02 0.02 0.02 0.01 0.00 0.00 0.00 0.00 0.00 0.00 0.01 0.01 0.02 0.03 0.03 0.04 0.04 0.05 0.05
0.17 0.19 0.20 0.23 0.24 0.23 0.22 0.16 0.13 0.13 0.14 0.11 0.11 0.06 0.05 0.05 0.05 0.04 0.05 0.04 0.04 0.02 0.00 0.00 0.01 0.00 0.01 0.01 0.02 0.02 0.02 0.02 0.03 0.04 0.06 0.06 0.06 0.06
0.05 0.05 0.08 0.12 0.10 0.14 0.16 0.16 0.13 0.14 0.16 0.16 0.16 0.13 0.08 0.07 0.07 0.10 0.12 0.13 0.09 0.02 0.02 0.01 0.01 0.00 0.00 0.01 0.01 0.01 0.02 0.02 0.03 0.04 0.06 0.07 0.08 0.10
0.03 0.04 0.06 0.10 0.15 0.09 0.18 0.22 0.27 0.40 0.41 0.31 0.24 0.20 0.15 0.13 0.15 0.16 0.15 0.15 0.11 0.04 0.02 0.02 0.01 0.01 0.01 0.01 0.01 0.00 0.00 0.00 0.01 0.02 0.03 0.04 0.05 0.04
0.07 0.07 0.08 0.10 0.19 0.22 0.23 0.37 0.48 0.54 0.49 0.41 0.40 0.42 0.36 0.30 0.29 0.27 0.24 0.16 0.07 0.02 0.02 0.03 0.01 0.01 0.01 0.01 0.01 0.02 0.04 0.06 0.06 0.06 0.07 0.07 0.06 0.05
0.09 0.12 0.17 0.15 0.40 0.32 0.20 0.28 0.34 0.36 0.39 0.35 0.31 0.30 0.28 0.23 0.18 0.13 0.09 0.08 0.06 0.02 0.01 0.02 0.01 0.01 0.00 0.00 0.00 0.01 0.02 0.04 0.05 0.04 0.03 0.03 0.06 0.05
0.15 0.21 0.37 0.21 0.34 0.19 0.11 0.08 0.11 0.13 0.15 0.18 0.18 0.17 0.15 0.13 0.11 0.08 0.06 0.07 0.07 0.04 0.00 0.02 0.01 0.02 0.06 0.01 0.01 0.02 0.04 0.03 0.02 0.01 0.01 0.01 0.03 0.05
0.17 0.18 0.22 0.27 0.17 0.16 0.14 0.11 0.15 0.17 0.18 0.15 0.13 0.11 0.10 0.12 0.12 0.09 0.10 0.15 0.21 0.16 0.06 0.13 0.13 0.11 0.15 0.09 0.03 0.02 0.04 0.07 0.07 0.05 0.02 0.00 0.01 0.03
0.17 0.19 0.30 0.33 0.22 0.20 0.18 0.17 0.18 0.15 0.13 0.12 0.12 0.10 0.07 0.05 0.07 0.07 0.05 0.04 0.06 0.07 0.04 0.14 0.21 0.11 0.13 0.12 0.06 0.01 0.03 0.02 0.02 0.03 0.05 0.03 0.00 0.00
0.22 0.28 0.33 0.29 0.21 0.19 0.18 0.15 0.12 0.11 0.10 0.08 0.05 0.04 0.02 0.01 0.01 0.02 0.02 0.02 0.01 0.01 0.02 0.06 0.08 0.09 0.12 0.11 0.07 0.03 0.02 0.00 0.01 0.02 0.04 0.05 0.03 0.03
0.28 0.27 0.21 0.17 0.13 0.13 0.11 0.07 0.04 0.02 0.03 0.05 0.06 0.04 0.01 0.00 0.02 0.03 0.05 0.04 0.07 0.02 0.02 0.05 0.08 0.15 0.14 0.07 0.10 0.07 0.02 0.02 0.02 0.02 0.03 0.04 0.04 0.08
0.18 0.17 0.17 0.15 0.13 0.11 0.08 0.07 0.07 0.05 0.03 0.02 0.01 0.01 0.01 0.01 0.02 0.06 0.09 0.10 0.12 0.03 0.02 0.03 0.07 0.11 0.08 0.06 0.07 0.02 0.01 0.01 0.02 0.04 0.05 0.06 0.05 0.04
0.19 0.17 0.16 0.14 0.13 0.12 0.10 0.07 0.03 0.02 0.01 0.00 0.00 0.00 0.02 0.03 0.09 0.15 0.20 0.21 0.19 0.13 0.10 0.09 0.11 0.11 0.08 0.05 0.03 0.03 0.04 0.03 0.05 0.06 0.06 0.09 0.07 0.08
0.20 0.20 0.18 0.16 0.12 0.08 0.05 0.03 0.02 0.01 0.00 0.01 0.01 0.01 0.03 0.03 0.04 0.07 0.05 0.05 0.05 0.05 0.04 0.04 0.08 0.11 0.10 0.05 0.03 0.03 0.11 0.09 0.10 0.11 0.09 0.08 0.08 0.08
0.13 0.11 0.09 0.07 0.05 0.03 0.02 0.01 0.01 0.01 0.01 0.01 0.01 0.03 0.05 0.07 0.08 0.07 0.07 0.08 0.09 0.09 0.07 0.05 0.06 0.09 0.14 0.10 0.11 0.04 0.05 0.10 0.12 0.13 0.13 0.13 0.14 0.11
0.10 0.08 0.07 0.05 0.04 0.02 0.02 0.02 0.02 0.01 0.01 0.02 0.03 0.09 0.18 0.23 0.21 0.21 0.21 0.17 0.17 0.15 0.11 0.06 0.06 0.10 0.09 0.10 0.09 0.02 0.01 0.02 0.09 0.17 0.18 0.23 0.22 0.18
0.08 0.07 0.06 0.05 0.03 0.02 0.02 0.02 0.01 0.01 0.01 0.01 0.02 0.04 0.05 0.09 0.11 0.10 0.11 0.12 0.12 0.12 0.09 0.05 0.06 0.11 0.09 0.08 0.03 0.04 0.07 0.06 0.04 0.06 0.15 0.25 0.25 0.25
0.06 0.04 0.03 0.02 0.01 0.01 0.01 0.01 0.00 0.01 0.01 0.01 0.02 0.05 0.07 0.07 0.09 0.10 0.09 0.09 0.09 0.10 0.11 0.11 0.13 0.14 0.08 0.07 0.06 0.07 0.10 0.11 0.09 0.10 0.10 0.17 0.18 0.09

GFSNE_prec_precacc24_081.txt.gz
Total_Precipitation_Accumulation
0.17 0.20 0.19 0.14 0.17 0.14 0.16 0.14 0.13 0.07 0.03 0.01 0.00 0.00 0.00 0.00 0.00 0.00 0.00 0.00 0.00 0.00 0.00 0.00 0.00 0.00 0.00 0.01 0.01 0.01 0.01 0.01 0.01 0.01 0.01 0.02 0.03 0.03
0.09 0.10 0.10 0.11 0.13 0.14 0.14 0.12 0.13 0.08 0.04 0.01 0.01 0.00 0.00 0.01 0.00 0.00 0.00 0.00 0.00 0.00 0.00 0.00 0.00 0.00 0.00 0.00 0.01 0.01 0.01 0.01 0.01 0.01 0.02 0.04 0.06 0.07
0.13 0.14 0.15 0.15 0.16 0.16 0.16 0.16 0.12 0.12 0.11 0.07 0.04 0.04 0.03 0.03 0.01 0.00 0.00 0.00 0.00 0.00 0.00 0.00 0.00 0.00 0.00 0.00 0.00 0.00 0.01 0.01 0.01 0.01 0.02 0.03 0.05 0.06
0.31 0.28 0.25 0.26 0.31 0.34 0.36 0.32 0.28 0.25 0.30 0.26 0.15 0.10 0.07 0.05 0.04 0.02 0.02 0.01 0.00 0.01 0.02 0.03 0.02 0.01 0.00 0.00 0.00 0.00 0.00 0.00 0.01 0.01 0.02 0.02 0.03 0.05
0.38 0.40 0.34 0.28 0.24 0.21 0.23 0.25 0.22 0.23 0.25 0.24 0.16 0.09 0.08 0.06 0.06 0.06 0.05 0.03 0.02 0.02 0.03 0.02 0.03 0.02 0.00 0.00 0.00 0.00 0.01 0.01 0.01 0.02 0.03 0.03 0.03 0.03
0.22 0.26 0.36 0.43 0.42 0.37 0.32 0.26 0.23 0.22 0.21 0.19 0.16 0.11 0.10 0.07 0.07 0.07 0.05 0.04 0.03 0.04 0.04 0.04 0.06 0.04 0.02 0.01 0.00 0.01 0.01 0.02 0.03 0.03 0.04 0.04 0.05 0.05
0.17 0.19 0.20 0.23 0.24 0.23 0.24 0.20 0.18 0.19 0.20 0.20 0.17 0.11 0.10 0.09 0.07 0.05 0.06 0.06 0.08 0.10 0.08 0.05 0.03 0.01 0.01 0.01 0.02 0.02 0.02 0.02 0.03 0.04 0.06 0.06 0.06 0.06
0.05 0.05 0.08 0.12 0.10 0.15 0.18 0.20 0.18 0.17 0.18 0.20 0.22 0.22 0.17 0.17 0.18 0.21 0.24 0.27 0.24 0.17 0.16 0.09 0.04 0.04 0.03 0.01 0.01 0.01 0.02 0.02 0.03 0.04 0.06 0.07 0.08 0.09
0.03 0.04 0.06 0.10 0.15 0.09 0.19 0.24 0.30 0.43 0.46 0.41 0.44 0.42 0.36 0.33 0.29 0.31 0.32 0.32 0.29 0.25 0.21 0.18 0.11 0.07 0.02 0.01 0.01 0.00 0.00 0.00 0.01 0.02 0.03 0.04 0.05 0.04
0.07 0.07 0.08 0.10 0.19 0.22 0.23 0.37 0.49 0.59 0.62 0.60 0.61 0.65 0.60 0.47 0.40 0.37 0.33 0.28 0.22 0.17 0.12 0.10 0.04 0.03 0.02 0.01 0.01 0.02 0.04 0.06 0.06 0.06 0.07 0.07 0.06 0.05
0.09 0.12 0.17 0.15 0.41 0.33 0.20 0.28 0.38 0.43 0.52 0.48 0.44 0.44 0.42 0.35 0.26 0.21 0.20 0.18 0.16 0.10 0.06 0.06 0.03 0.03 0.01 0.01 0.00 0.01 0.02 0.04 0.05 0.04 0.03 0.03 0.05 0.05
0.16 0.22 0.39 0.23 0.38 0.22 0.12 0.08 0.16 0.21 0.22 0.26 0.27 0.25 0.22 0.18 0.16 0.12 0.11 0.13 0.14 0.11 0.05 0.05 0.03 0.03 0.06 0.01 0.01 0.02 0.04 0.03 0.02 0.01 0.00 0.00 0.02 0.05
0.18 0.20 0.25 0.34 0.23 0.23 0.20 0.13 0.21 0.25 0.28 0.21 0.18 0.17 0.14 0.11 0.10 0.10 0.10 0.13 0.19 0.16 0.06 0.14 0.13 0.11 0.15 0.09 0.03 0.02 0.04 0.07 0.07 0.05 0.02 0.00 0.00 0.02
0.21 0.25 0.38 0.45 0.31 0.29 0.26 0.26 0.28 0.21 0.15 0.16 0.16 0.15 0.12 0.09 0.06 0.04 0.03 0.02 0.05 0.06 0.04 0.14 0.21 0.11 0.13 0.12 0.06 0.01 0.03 0.02 0.02 0.03 0.05 0.03 0.00 0.00
0.39 0.52 0.57 0.47 0.37 0.35 0.33 0.31 0.25 0.20 0.18 0.15 0.12 0.09 0.06 0.04 0.02 0.01 0.01 0.01 0.01 0.01 0.02 0.06 0.08 0.09 0.12 0.11 0.07 0.03 0.02 0.00 0.01 0.02 0.04 0.05 0.03 0.02
0.62 0.61 0.56 0.50 0.45 0.40 0.34 0.27 0.20 0.15 0.13 0.11 0.10 0.09 0.04 0.01 0.01 0.00 0.01 0.01 0.04 0.02 0.02 0.05 0.08 0.15 0.14 0.07 0.10 0.07 0.02 0.02 0.02 0.02 0.03 0.04 0.04 0.03
0.67 0.66 0.60 0.50 0.45 0.38 0.30 0.25 0.22 0.18 0.15 0.11 0.08 0.05 0.03 0.02 0.01 0.00 0.01 0.03 0.07 0.03 0.02 0.03 0.07 0.11 0.08 0.06 0.07 0.02 0.01 0.01 0.02 0.04 0.07 0.07 0.05 0.03
0.63 0.60 0.56 0.46 0.41 0.38 0.32 0.25 0.18 0.13 0.09 0.06 0.04 0.03 0.02 0.01 0.01 0.01 0.04 0.11 0.16 0.12 0.10 0.09 0.11 0.11 0.08 0.05 0.03 0.03 0.04 0.04 0.05 0.06 0.06 0.09 0.07 0.08
0.47 0.49 0.44 0.36 0.29 0.22 0.16 0.12 0.09 0.05 0.03 0.02 0.01 0.01 0.01 0.01 0.01 0.01 0.03 0.05 0.05 0.04 0.04 0.04 0.08 0.11 0.11 0.06 0.03 0.03 0.11 0.09 0.10 0.11 0.08 0.08 0.08 0.08
0.25 0.22 0.19 0.15 0.11 0.08 0.06 0.04 0.03 0.01 0.01 0.01 0.01 0.01 0.02 0.02 0.02 0.03 0.05 0.08 0.08 0.08 0.07 0.05 0.06 0.09 0.15 0.11 0.11 0.04 0.05 0.10 0.12 0.13 0.13 0.13 0.14 0.10
0.16 0.14 0.12 0.10 0.08 0.05 0.03 0.02 0.02 0.01 0.01 0.01 0.01 0.01 0.02 0.04 0.05 0.09 0.16 0.16 0.17 0.13 0.10 0.06 0.06 0.10 0.09 0.10 0.09 0.02 0.01 0.02 0.09 0.17 0.19 0.23 0.22 0.18
0.12 0.10 0.08 0.06 0.04 0.03 0.02 0.02 0.01 0.01 0.01 0.01 0.01 0.01 0.01 0.03 0.05 0.04 0.06 0.10 0.10 0.11 0.08 0.05 0.06 0.11 0.09 0.08 0.04 0.04 0.07 0.06 0.04 0.06 0.15 0.25 0.27 0.27
0.08 0.05 0.04 0.02 0.01 0.01 0.00 0.01 0.00 0.00 0.01 0.01 0.01 0.01 0.01 0.02 0.03 0.04 0.05 0.06 0.08 0.08 0.09 0.09 0.12 0.14 0.08 0.07 0.06 0.07 0.10 0.11 0.09 0.10 0.10 0.17 0.18 0.11